Regional Weather Roundup
Issued by NWS Northern Indiana

Home | Current Version | Previous Version | Text Only | Print | Product List | Glossary Off
Versions: 1 2 3 4 5 6 7 8 9 10 11 12 13 14 15 16 17 18 19 20 21 22 23 24 25 26 27 28 29 30 31 32 33 34 35 36 37 38 39 40 41 42 43 44 45 46 47 48 49 50

000
ASUS43 KIWX 292300
RWRIWX

KIWX WEATHER ROUNDUP
NATIONAL WEATHER SERVICE NORTHERN INDIANA
700 PM EDT WED JUL 29 2015

NOTE: "FAIR" INDICATES FEW OR NO CLOUDS BELOW 12,000 FEET WITH NO
SIGNIFICANT WEATHER AND/OR OBSTRUCTIONS TO VISIBILITY.

* THESE STATIONS ARE NOT UNDER NWS QUALITY CONTROL. THEY ALSO MAY NOT
  REPORT WEATHER SUCH AS PRECIPITATION OR FOG.

INZ001>027-300000-
NORTHERN INDIANA

CITY           SKY/WX    TMP DP  RH WIND       PRES   REMARKS
GARY*          MOSUNNY   86  52  30 W23       29.96S
SOUTH BEND     SUNNY     83  59  44 NW7       29.97S
GOSHEN         SUNNY     81  61  50 NW12      29.95S
ANGOLA*        SUNNY     82  79  89 NW10      29.94S
FORT WAYNE     PTSUNNY   86  73  65 W14       29.93F

$$
INZ028>050-300000-
CENTRAL INDIANA

CITY           SKY/WX    TMP DP  RH WIND       PRES   REMARKS
LAFAYETTE      MOSUNNY   82  68  62 NW9       29.96S
KOKOMO*        MOSUNNY   86  75  70 N10       29.94F HX  95
MUNCIE*        MOSUNNY   84  73  69 NW10      29.94F
INDIANAPOLIS   CLOUDY    85  73  67 NW12      29.95S

$$
MIZ043>046-050>051-056>058-064>065-071>073-077>080-300000-
SOUTHWEST LOWER MICHIGAN

CITY           SKY/WX    TMP DP  RH WIND       PRES   REMARKS
BATTLE CREEK   SUNNY     83  58  42 NW13      29.95R
BENTON HARBOR  SUNNY     80  62  54 W9        29.95S
COLDWATER*     SUNNY     81  60  49 NW10      29.94S
HILLSDALE*     MOSUNNY   84  72  67 W14G24    29.94R
HOLLAND        SUNNY     81  60  48 W9G17     29.94S
GRAND RAPIDS   MOSUNNY   84  51  31 W15G22    29.92S
KALAMAZOO      SUNNY     81  56  42 W16G22    29.95R
STURGIS*       SUNNY     81  61  50 NW8       29.95S
THREE RIVERS*  FAIR      82  58  43 W15       29.95S

$$
OHZ001>008-015>018-024>025-300000-
NORTHWEST OHIO

CITY           SKY/WX    TMP DP  RH WIND       PRES   REMARKS
DEFIANCE       MOSUNNY   88  73  61 NW14      29.91S HX  95
FINDLAY        CLOUDY    83  74  74 W8        29.91F
TOLEDO EXPRESS PTSUNNY   80  75  84 SW8       29.90F
TOLEDO METCALF CLOUDY    78  73  84 W5        29.91F
LIMA           CLOUDY    81  74  79 W5        29.93F

$$
AND FOR LAKE MICHIGAN COASTAL AND OPEN LAKE BUOY OBSERVATIONS

STATION/POSITION TEMP    WIND        PRES    VSBY  WAVE
                 AIR SEA DIR/SP/G                  HT/PER
                 (F)     (DEG/KT/KT) (MB)    (MI)  (FT/S)
CALUMET HARBOR    87                   N/A
MICHIGAN CITY     81     270/  2/  4   N/A
BURNS HARBOR      84      60/  3/  3 1014.9S
SAINT JOSEPH      81     220/  5/  7 1015.2S
4 MI NW BRIDGMAN  77 76  330/  6/  8   N/A           1/ 3
MICHIGAN CITY     80 78  290/  2/  2   N/A           1

$$
&&



USA.gov is the U.S. government's official web portal to all federal, state and local government web resources and services.